Location: Koussan�
(15.2012°N, 12.5548°W)
Time: 12:31:41
(UTC+00:00)

NOSS 3-1 (C) - Pass Details

Date: 20 October 2020
Orbit: 741 x 1467 km, 63.4° (Epoch: 23 November)

Event Time Altitude Azimuth Distance (km) Brightness Sun altitude
Rises 19:34:52 0° 337° (NNW) 4,283 7.1 -17.1°
Reaches altitude 10° 19:37:36 10° 338° (NNW) 3,389 6.5 -17.8°
Maximum altitude 19:46:08 82° 66° (ENE) 1,456 4.2 -19.8°
Drops below altitude 10° 19:55:12 10° 154° (SSE) 3,582 6.2 -22.0°
Sets 19:58:09 0° 154° (SSE) 4,536 6.8 -22.7°
